GORIZONT 22 [-]

Last updated on Tue Jun 27 2023 00:03:00 GMT+0000 (Coordinated Universal Time)

1 20953U 90102A 23176.66378080 -.00000125 00000+0 00000+0 0 9995 2 20953 13.7287 345.1747 0002266 56.2711 191.3841 1.00154396119498
UTC large
Height (km)
Speed (km/s)
/
Latitude / Longitude
Inclination (degrees)
Orbital Period (minutes)
Azimuth
Elevation
Range (km)
Doppler Factor

Next 0 passes for location: London (51.5072 / 0.1276)

Sorry there are no passes over London.